TimeEST,TemperatureF,Dew PointF,Humidity,Sea Level PressureIn,VisibilityMPH,Wind Direction,Wind SpeedMPH,Gust SpeedMPH,PrecipitationIn,Events,Conditions,WindDirDegrees,DateUTC
12:20 AM,62.1,60.1,93,30.15,1.8,Calm,Calm,-,N/A,,Partly Cloudy,0,2013-11-23 05:20:00
12:29 AM,63.0,61.0,93,30.15,1.0,Calm,Calm,-,N/A,,Mist,0,2013-11-23 05:29:00
12:32 AM,63.0,61.0,93,30.15,2.0,Calm,Calm,-,N/A,,Partly Cloudy,0,2013-11-23 05:32:00
12:39 AM,62.1,59.0,90,30.15,7.0,Calm,Calm,-,N/A,,Partly Cloudy,0,2013-11-23 05:39:00
12:52 AM,63.0,60.1,90,30.14,8.0,Calm,Calm,-,N/A,,Clear,0,2013-11-23 05:52:00
1:52 AM,63.0,60.1,90,30.15,2.5,Calm,Calm,-,N/A,,Clear,0,2013-11-23 06:52:00
1:57 AM,62.1,60.1,93,30.15,0.8,Calm,Calm,-,N/A,,Clear,0,2013-11-23 06:57:00
2:19 AM,62.1,59.0,90,30.15,0.5,Calm,Calm,-,N/A,Fog,Fog,0,2013-11-23 07:19:00
2:22 AM,62.1,60.1,93,30.15,1.0,Calm,Calm,-,N/A,,Partly Cloudy,0,2013-11-23 07:22:00
2:31 AM,63.0,60.1,90,30.15,8.0,WNW,3.5,-,N/A,,Clear,300,2013-11-23 07:31:00
2:52 AM,61.0,59.0,93,30.14,4.0,Calm,Calm,-,N/A,,Clear,0,2013-11-23 07:52:00
3:52 AM,61.0,59.0,93,30.12,10.0,South,3.5,-,N/A,,Clear,190,2013-11-23 08:52:00
4:52 AM,62.1,60.1,93,30.11,8.0,Calm,Calm,-,N/A,,Clear,0,2013-11-23 09:52:00
5:02 AM,61.0,59.0,93,30.11,1.5,Calm,Calm,-,N/A,,Clear,0,2013-11-23 10:02:00
5:13 AM,61.0,57.9,90,30.11,3.0,West,3.5,-,N/A,,Clear,270,2013-11-23 10:13:00
5:37 AM,59.0,57.9,96,30.11,0.8,Calm,Calm,-,N/A,,Clear,0,2013-11-23 10:37:00
5:47 AM,60.8,57.2,88,30.11,2.0,Calm,Calm,-,N/A,,Clear,0,2013-11-23 10:47:00
5:52 AM,60.1,57.9,93,30.11,9.0,Calm,Calm,-,N/A,,Clear,0,2013-11-23 10:52:00
6:52 AM,62.1,60.1,93,30.12,8.0,NW,4.6,-,N/A,,Clear,310,2013-11-23 11:52:00
7:52 AM,64.0,62.1,93,30.14,10.0,Calm,Calm,-,N/A,,Clear,0,2013-11-23 12:52:00
8:52 AM,66.9,63.0,87,30.14,10.0,WSW,3.5,-,N/A,,Clear,240,2013-11-23 13:52:00
9:52 AM,72.0,64.9,78,30.14,10.0,Variable,3.5,-,N/A,,Clear,0,2013-11-23 14:52:00
10:52 AM,75.0,64.0,69,30.13,10.0,NNW,3.5,-,N/A,,Clear,330,2013-11-23 15:52:00
11:12 AM,77.0,64.0,64,30.12,10.0,Variable,3.5,-,N/A,,Partly Cloudy,0,2013-11-23 16:12:00
11:52 AM,77.0,64.0,64,30.09,10.0,Variable,4.6,-,N/A,,Partly Cloudy,0,2013-11-23 16:52:00
12:52 PM,80.1,62.1,54,30.06,10.0,Variable,5.8,-,N/A,,Partly Cloudy,0,2013-11-23 17:52:00
1:52 PM,77.0,64.0,64,30.04,10.0,SE,5.8,-,N/A,,Partly Cloudy,130,2013-11-23 18:52:00
2:52 PM,77.0,63.0,62,30.03,10.0,SSE,6.9,-,N/A,,Partly Cloudy,150,2013-11-23 19:52:00
3:52 PM,75.9,63.0,64,30.03,10.0,SE,5.8,-,N/A,,Partly Cloudy,130,2013-11-23 20:52:00
4:52 PM,72.0,63.0,73,30.03,10.0,SE,3.5,-,N/A,,Mostly Cloudy,130,2013-11-23 21:52:00
5:39 PM,72.0,64.0,76,30.04,7.0,Variable,3.5,-,0.00,Rain,Light Rain,0,2013-11-23 22:39:00
5:52 PM,72.0,64.0,76,30.04,10.0,Calm,Calm,-,0.00,,Mostly Cloudy,0,2013-11-23 22:52:00
6:34 PM,71.1,64.9,81,30.05,7.0,Calm,Calm,-,0.07,Rain,Light Rain,0,2013-11-23 23:34:00
6:49 PM,71.6,66.2,83,30.05,10.0,Calm,Calm,-,0.07,,Mostly Cloudy,0,2013-11-23 23:49:00
6:52 PM,71.1,66.0,84,30.06,10.0,Calm,Calm,-,0.07,,Mostly Cloudy,0,2013-11-23 23:52:00
7:52 PM,70.0,64.9,84,30.07,10.0,Variable,4.6,-,N/A,,Mostly Cloudy,0,2013-11-24 00:52:00
8:52 PM,70.0,64.0,81,30.08,10.0,North,6.9,-,N/A,,Mostly Cloudy,360,2013-11-24 01:52:00
9:52 PM,68.0,62.1,81,30.08,10.0,NNW,5.8,-,N/A,,Overcast,340,2013-11-24 02:52:00
10:52 PM,66.9,60.1,79,30.09,10.0,Variable,6.9,-,N/A,,Overcast,0,2013-11-24 03:52:00
11:11 PM,66.9,60.1,79,30.10,10.0,Variable,6.9,-,N/A,,Overcast,0,2013-11-24 04:11:00
11:52 PM,64.9,59.0,81,30.10,10.0,Variable,6.9,-,N/A,,Overcast,0,2013-11-24 04:52:00